Weather History for Eagle, AK

Change the Weather History Date:

Thursday, January 2, 2014

  Actual Average (PABN) Record (PABN)
Temperature  
Mean Temperature 5 °F -  
Max Temperature 12 °F 0 °F 39 °F (1997)
Min Temperature -9 °F -5 °F -41 °F (1997)
Degree Days  
Heating Degree Days 60    
Moisture  
Dew Point 2 °F    
Average Humidity 79    
Maximum Humidity 81    
Minimum Humidity 73    
Precipitation  
Precipitation 0.03 in - - ()
Sea Level Pressure  
Sea Level Pressure 29.87 in    
Wind  
Wind Speed 1 mph (North)    
Max Wind Speed 5 mph    
Max Gust Speed -    
Visibility 5 miles    
Events Snow    
Averages and records for this station are not official NWS values.
T = Trace of Precipitation, MM = Missing Value Source: NWS Daily Summary

Daily Weather History Graph

Daily Weather History Graph

Search for Another Location

Airport:

Trip Planner

Search our weather history database for the weather conditions in past years. The results will help you decide how hot, cold, wet, or windy it might be!

Date:

Astronomy

Jan. 02, 2014 Rise Set
Actual Time 10:25 AM AKST 2:32 PM AKST
Civil Twilight 9:04 AM AKST 3:53 PM AKST
Nautical Twilight 7:54 AM AKST 5:03 PM AKST
Astronomical Twilight 6:53 AM AKST 6:04 PM AKST
Moon 10:05 AM AKST (1/2) 5:54 PM AKST (1/2)
Length of Visible Light 6h 48m
Length of Day
4h 07m
Waxing Crescent, 3% of the Moon is Illuminated
Jan 2
Waxing Crescent
Jan 7
First Quarter
Jan 15
Full
Jan 23
Last Quarter
Jan 30
New

Hourly Weather History & Observations

Time (AKST) Temp. Windchill Dew Point Humidity Pressure Visibility Wind Dir Wind Speed Gust Speed Precip Events Conditions
12:53 AM 12.9 °F 5.2 °F 8.1 °F 81% 29.58 in 10.0 mi NW 4.6 mph - N/A   Clear
1:53 AM 10.9 °F - 6.1 °F 81% 29.61 in 10.0 mi Calm Calm - N/A   Clear
2:24 AM 9.0 °F - 3.9 °F 80% 29.57 in 10.0 mi Calm Calm - N/A   Mostly Cloudy
3:53 AM 10.9 °F - 6.1 °F 81% 29.65 in 10.0 mi Calm Calm - N/A   Overcast
4:53 AM 12.0 °F - 7.0 °F 80% 29.66 in 9.0 mi Calm Calm - N/A   Overcast
5:53 AM 12.0 °F - 6.1 °F 77% 29.69 in 9.0 mi Calm Calm - N/A   Overcast
6:53 AM 12.0 °F 5.9 °F 5.0 °F 73% 29.71 in 7.0 mi NNE 3.5 mph - 0.00 in   Overcast
7:53 AM 10.9 °F - 5.0 °F 77% 29.74 in 6.0 mi Calm Calm - 0.00 in Snow Light Snow
8:53 AM 10.9 °F - 5.0 °F 77% 29.77 in 4.0 mi Calm Calm - 0.00 in Snow Light Snow
9:53 AM 10.0 °F - 5.0 °F 80% 29.79 in 7.0 mi Calm Calm - 0.00 in   Overcast
10:53 AM 10.0 °F - 5.0 °F 80% 29.82 in 5.0 mi Calm Calm - 0.00 in Snow Light Snow
11:24 AM 10.0 °F - 5.0 °F 80% 29.78 in 2.5 mi Calm Calm - 0.00 in Snow Light Snow
11:46 AM 10.0 °F - 5.0 °F 80% 29.80 in 1.2 mi Calm Calm - 0.00 in Snow Light Snow
11:53 AM 10.0 °F - 3.9 °F 76% 29.86 in 0.8 mi Calm Calm - 0.01 in Snow Light Snow
12:22 PM 10.0 °F - 5.0 °F 80% 29.82 in 1.2 mi Calm Calm - 0.00 in Snow Light Snow
12:53 PM 10.9 °F - 5.0 °F 77% 29.89 in 1.0 mi Calm Calm - 0.01 in Snow Light Snow
1:15 PM 10.0 °F - 5.0 °F 80% 29.84 in 2.0 mi Calm Calm - 0.00 in Snow Light Snow
1:35 PM 10.0 °F - 5.0 °F 80% 29.85 in 1.5 mi Calm Calm - 0.00 in Snow Light Snow
1:53 PM 10.0 °F - 5.0 °F 80% 29.92 in 1.5 mi Calm Calm - 0.00 in Snow Light Snow
2:23 PM 10.0 °F - 5.0 °F 80% 29.87 in 2.0 mi Calm Calm - 0.00 in Snow Light Snow
2:53 PM 9.0 °F - 3.9 °F 80% 29.95 in 2.0 mi Calm Calm - 0.00 in Snow Light Snow
3:02 PM 9.0 °F - 3.9 °F 80% 29.89 in 1.8 mi Calm Calm - 0.00 in Snow Light Snow
3:20 PM 8.1 °F - 3.0 °F 80% 29.90 in 3.0 mi Calm Calm - 0.01 in Snow Light Snow
3:53 PM 8.1 °F - 1.9 °F 76% 29.98 in 3.0 mi Calm Calm - 0.01 in Snow Light Snow
4:05 PM 8.1 °F - 3.0 °F 80% 29.92 in 2.5 mi Calm Calm - 0.00 in Snow Light Snow
4:40 PM 7.0 °F - 1.9 °F 80% 29.94 in 3.0 mi Calm Calm - 0.00 in Snow Light Snow
4:53 PM 6.1 °F - 1.0 °F 80% 30.01 in 3.0 mi Calm Calm - 0.00 in Snow Light Snow
5:53 PM 1.9 °F - -2.9 °F 80% 30.04 in 5.0 mi Calm Calm - 0.00 in Snow Light Snow
6:53 PM -0.0 °F - -5.1 °F 79% 30.08 in 6.0 mi Calm Calm - 0.00 in Snow Light Snow
7:53 PM -0.9 °F -8.9 °F -7.1 °F 75% 30.11 in 10.0 mi South 3.5 mph - 0.00 in   Overcast
8:53 PM -0.0 °F - -6.0 °F 76% 30.14 in 10.0 mi Calm Calm - N/A   Overcast
9:53 PM -0.9 °F - -7.1 °F 75% 30.16 in 10.0 mi Calm Calm - N/A   Overcast
10:53 PM -2.0 °F - -8.0 °F 76% 30.19 in 10.0 mi Calm Calm - N/A   Overcast
11:53 PM -9.0 °F - -15.0 °F 75% 30.22 in 10.0 mi Calm Calm - N/A   Clear